GW3140 Weather Reports


Display with metric or nautical units.
time (UTC)temp
F
wind
direction
speed
MPH
gust
MPH
rain 1hr
in
rain 24hr
in
rain mn
in
humidity
%
barometer
mb
20260902231543 69 0 0.0 0.0 0.00 0.63 0.63 93 1013.7
20260902231017 69 0 0.0 0.0 0.00 0.63 0.63 93 1014.0
20260902230519 69 0 0.0 0.0 0.00 0.63 0.63 93 1013.8
20260902230039 69 0 0.0 0.0 0.00 0.63 0.63 93 1013.9
20260902225519 69 0 0.0 0.0 0.00 0.63 0.63 93 1014.1
20260902225020 69 0 0.0 0.0 0.00 0.63 0.63 93 1013.7
20260902224542 69 0 0.0 1.0 0.03 0.63 0.63 93 1013.7
20260902224018 68 0 0.0 1.0 0.03 0.63 0.63 93 1013.7
20260902223516 68 0 0.0 1.0 0.03 0.63 0.63 93 1013.5
20260902223037 68 0 0.0 1.0 0.03 0.63 0.63 93 1013.4
20260902222516 68 0 0.0 1.0 0.03 0.63 0.63 93 1013.2
20260902222017 68 63 0.0 1.0 0.03 0.63 0.63 93 1013.2
20260902221536 67 58 0.0 2.0 0.03 0.63 0.63 93 1013.3
20260902221021 67 0 0.0 2.0 0.03 0.63 0.63 92 1013.5
20260902220520 67 0 0.0 3.0 0.03 0.63 0.63 92 1013.7
20260902220037 67 0 1.0 3.0 0.03 0.63 0.63 92 1013.8
20260902215520 67 0 0.0 3.0 0.03 0.63 0.63 91 1013.7
20260902215019 67 26 1.0 3.0 0.02 0.62 0.62 91 1013.9
20260902214017 67 0 1.0 8.0 0.44 0.59 0.59 90 1015.1
20260902213519 67 288 1.0 8.0 0.41 0.57 0.57 88 1014.8
20260902213034 68 297 2.0 6.0 0.17 0.33 0.33 85 1015.3
20260902210036 81 0 0.0 0.0 0.00 0.15 0.15 73 1012.8
20260902205518 81 0 0.0 1.0 0.00 0.15 0.15 71 1013.1
20260902205019 82 0 0.0 5.0 0.00 0.15 0.15 69 1012.9
20260902204537 82 0 1.0 5.0 0.00 0.15 0.15 70 1012.7
20260902204020 82 172 1.0 3.0 0.00 0.15 0.15 69 1012.4
20260902203524 81 0 1.0 6.0 0.00 0.15 0.15 69 1012.4
20260902203035 81 0 0.0 6.0 0.00 0.15 0.15 66 1012.7
20260902202522 81 199 2.0 8.0 0.00 0.15 0.15 65 1013.1
20260902202016 81 172 1.0 8.0 0.00 0.15 0.15 66 1013.2
20260902201540 82 189 2.0 8.0 0.00 0.15 0.15 60 1013.5
20260902201016 84 185 1.0 5.0 0.00 0.15 0.15 65 1013.1
20260902200516 85 204 1.0 4.0 0.00 0.15 0.15 72 1013.4
20260902200034 86 175 0.0 2.0 0.00 0.15 0.15 76 1013.2
20260902195520 86 0 0.0 4.0 0.00 0.15 0.15 76 1013.2
20260902195019 87 0 1.0 4.0 0.00 0.15 0.15 72 1013.0
20260902194537 88 0 0.0 3.0 0.00 0.15 0.15 74 1013.1
20260902194018 88 13 1.0 3.0 0.00 0.15 0.15 75 1013.0
20260902193519 88 214 1.0 3.0 0.00 0.15 0.15 75 1013.1
20260902193034 87 136 1.0 7.0 0.00 0.15 0.15 76 1013.3
20260902192517 87 215 1.0 7.0 0.00 0.15 0.15 76 1013.5
20260902192018 87 195 1.0 5.0 0.00 0.15 0.15 79 1013.5
20260902191537 87 170 1.0 3.0 0.00 0.15 0.15 79 1013.6
20260902191017 86 162 0.0 3.0 0.00 0.15 0.15 78 1013.6
20260902190519 86 194 0.0 2.0 0.00 0.15 0.15 79 1013.7
20260902190037 85 185 0.0 2.0 0.00 0.15 0.15 83 1013.7
20260902185518 85 172 0.0 3.0 0.00 0.15 0.15 81 1013.8
20260902185017 85 266 0.0 3.0 0.00 0.15 0.15 79 1014.0
20260902184538 84 168 0.0 3.0 0.00 0.15 0.15 79 1014.0
20260902184017 84 0 0.0 0.0 0.00 0.15 0.15 81 1014.0
20260902183519 83 0 0.0 0.0 0.00 0.15 0.15 80 1013.8
20260902183040 82 0 0.0 0.0 0.00 0.15 0.15 85 1013.9
20260902182516 82 0 0.0 0.0 0.00 0.15 0.15 86 1013.9
20260902182016 81 0 0.0 0.0 0.06 0.15 0.15 87 1014.0
20260902181537 80 0 0.0 0.0 0.12 0.15 0.15 90 1014.0
20260902181018 80 0 0.0 0.0 0.14 0.15 0.15 92 1014.0
20260902180519 79 0 0.0 0.0 0.15 0.15 0.15 95 1014.3
20260902180052 79 0 0.0 0.0 0.15 0.15 0.15 95 1014.3
20260902175519 78 0 0.0 0.0 0.15 0.15 0.15 95 1014.4
20260902175018 77 0 0.0 0.0 0.15 0.15 0.15 94 1014.6
20260902174536 75 0 0.0 1.0 0.15 0.15 0.15 93 1014.4
20260902174017 74 0 0.0 1.0 0.15 0.15 0.15 92 1014.5
20260902173517 74 0 0.0 2.0 0.15 0.15 0.15 87 1014.5
20260902173040 74 0 0.0 3.0 0.15 0.15 0.15 82 1014.6
20260902172521 77 0 0.0 6.0 0.15 0.15 0.15 77 1014.7
20260902172020 80 309 1.0 6.0 0.07 0.07 0.07 72 1014.7
20260902171548 83 191 0.0 5.0 0.02 0.02 0.02 83 1014.9
20260902171018 84 191 0.0 2.0 0.00 0.00 0.00 81 1014.9
20260902170521 85 0 0.0 2.0 0.00 0.00 0.00 77 1015.0
20260902170039 85 244 0.0 3.0 0.00 0.00 0.00 77 1015.0
20260902165520 85 276 1.0 3.0 0.00 0.00 0.00 75 1015.2
20260902165020 85 243 0.0 3.0 0.00 0.00 0.00 76 1015.1
20260902164539 85 251 0.0 3.0 0.00 0.00 0.00 78 1015.3
20260902164018 85 175 1.0 3.0 0.00 0.00 0.00 78 1015.1
20260902163518 85 0 0.0 3.0 0.00 0.00 0.00 78 1015.2
20260902163036 84 257 1.0 3.0 0.00 0.00 0.00 78 1015.3
20260902162517 84 101 1.0 4.0 0.00 0.00 0.00 80 1015.4
20260902162019 84 200 0.0 4.0 0.00 0.00 0.00 79 1015.5
20260902161541 83 114 1.0 4.0 0.00 0.00 0.00 82 1015.5
20260902161018 83 202 0.0 4.0 0.00 0.00 0.00 82 1015.6
20260902160518 83 141 0.0 5.0 0.00 0.00 0.00 83 1015.5
20260902160034 82 0 1.0 5.0 0.00 0.00 0.00 83 1015.4
20260902155516 82 264 1.0 3.0 0.00 0.00 0.00 84 1015.5
20260902155020 81 237 0.0 3.0 0.00 0.00 0.00 83 1015.7
20260902154535 81 0 0.0 2.0 0.00 0.00 0.00 84 1015.6
20260902154020 81 0 0.0 3.0 0.00 0.00 0.00 84 1015.6
20260902153523 80 0 1.0 3.0 0.00 0.00 0.00 85 1015.5
20260902153036 80 0 0.0 5.0 0.00 0.00 0.00 85 1015.5
20260902152517 80 0 0.0 5.0 0.00 0.00 0.00 85 1015.5
20260902152019 80 0 0.0 3.0 0.00 0.00 0.00 86 1015.4
20260902151536 80 171 0.0 3.0 0.00 0.00 0.00 86 1015.6
20260902151020 80 204 0.0 5.0 0.00 0.00 0.00 85 1015.5
20260902150521 80 0 1.0 5.0 0.00 0.00 0.00 86 1015.6
20260902150038 80 0 0.0 3.0 0.00 0.00 0.00 87 1015.6
20260902145517 79 150 0.0 3.0 0.00 0.00 0.00 86 1015.7
20260902145016 79 172 0.0 3.0 0.00 0.00 0.00 87 1015.7
20260902144537 79 0 0.0 4.0 0.00 0.00 0.00 88 1015.7
20260902144018 78 158 0.0 4.0 0.00 0.00 0.00 89 1015.6
20260902143522 78 245 0.0 4.0 0.00 0.00 0.00 89 1015.6
20260902143038 78 0 0.0 4.0 0.00 0.00 0.00 89 1015.6
20260902142518 77 0 1.0 4.0 0.00 0.00 0.00 90 1015.7
20260902142019 77 0 0.0 3.0 0.00 0.00 0.00 91 1015.6
20260902141538 76 0 0.0 0.0 0.00 0.00 0.00 91 1015.5
20260902141020 76 0 0.0 0.0 0.00 0.00 0.00 91 1015.4
20260902140516 76 0 0.0 0.0 0.00 0.00 0.00 91 1015.5
20260902140040 76 0 0.0 0.0 0.00 0.00 0.00 91 1015.5
20260902135518 76 0 0.0 2.0 0.00 0.00 0.00 91 1015.5
20260902135016 76 0 0.0 3.0 0.00 0.00 0.00 91 1015.4
20260902134538 76 175 0.0 3.0 0.00 0.00 0.00 91 1015.4
20260902134019 75 0 0.0 3.0 0.00 0.00 0.00 91 1015.4
20260902133521 75 0 0.0 2.0 0.00 0.00 0.00 91 1015.5
20260902133035 75 0 0.0 2.0 0.00 0.00 0.00 92 1015.3
20260902132521 75 0 0.0 2.0 0.00 0.00 0.00 91 1015.3
20260902132018 75 0 0.0 0.0 0.00 0.00 0.00 92 1015.3
20260902131538 75 0 0.0 0.0 0.00 0.00 0.00 91 1015.3
20260902131018 75 0 0.0 0.0 0.00 0.00 0.00 91 1015.2
20260902130518 75 0 0.0 0.0 0.00 0.00 0.00 91 1015.3
20260902130042 75 0 0.0 1.0 0.00 0.00 0.00 92 1015.2
20260902125519 75 0 0.0 1.0 0.00 0.00 0.00 92 1015.1
20260902125022 74 0 0.0 0.0 0.00 0.00 0.00 92 1015.2
20260902124535 74 0 0.0 0.0 0.00 0.00 0.00 92 1015.2
20260902124018 74 0 0.0 1.0 0.00 0.00 0.00 92 1015.4
20260902123519 74 0 0.0 1.0 0.00 0.00 0.00 92 1015.2
20260902123035 74 0 0.0 1.0 0.00 0.00 0.00 92 1015.2
20260902122519 74 0 0.0 0.0 0.00 0.00 0.00 92 1015.1
20260902122016 74 0 0.0 0.0 0.00 0.00 0.00 92 1015.1
20260902121538 74 0 0.0 0.0 0.00 0.00 0.00 92 1015.0
20260902121018 73 0 0.0 0.0 0.00 0.00 0.00 92 1015.1
20260902120518 73 0 0.0 0.0 0.00 0.00 0.00 92 1015.2
20260902120039 73 0 0.0 0.0 0.00 0.00 0.00 92 1015.2
20260902115520 73 0 0.0 0.0 0.00 0.00 0.00 92 1015.3
20260902115020 73 0 0.0 0.0 0.00 0.00 0.00 91 1015.4
20260902114602 73 0 0.0 0.0 0.00 0.00 0.00 92 1015.4
20260902114023 73 0 0.0 0.0 0.00 0.00 0.00 91 1015.4
20260902113519 73 0 0.0 0.0 0.00 0.00 0.00 91 1015.4
20260902113047 73 0 0.0 0.0 0.00 0.00 0.00 91 1015.3
20260902112517 73 0 0.0 0.0 0.00 0.00 0.00 91 1015.2
20260902112019 73 0 0.0 0.0 0.00 0.00 0.00 91 1015.2
20260902111537 73 0 0.0 0.0 0.00 0.00 0.00 91 1015.1
20260902111016 73 0 0.0 0.0 0.00 0.00 0.00 91 1015.0
20260902110515 73 0 0.0 0.0 0.00 0.00 0.00 91 1015.0
20260902110041 72 0 0.0 0.0 0.00 0.00 0.00 92 1014.9
20260902105517 72 0 0.0 0.0 0.00 0.00 0.00 92 1014.8
20260902105018 72 0 0.0 0.0 0.00 0.00 0.00 92 1014.6
20260902104539 72 0 0.0 0.0 0.00 0.00 0.00 92 1014.5
20260902104019 72 0 0.0 0.0 0.00 0.00 0.00 92 1014.3
20260902103518 72 0 0.0 0.0 0.00 0.00 0.00 92 1014.3
20260902103035 73 0 0.0 0.0 0.00 0.00 0.00 92 1014.2
20260902102522 73 0 0.0 0.0 0.00 0.00 0.00 92 1014.2
20260902102019 73 0 0.0 0.0 0.00 0.00 0.00 93 1014.3
20260902101534 73 0 0.0 0.0 0.00 0.00 0.00 93 1014.1
20260902101018 73 0 0.0 0.0 0.00 0.00 0.00 93 1014.3
20260902100516 73 0 0.0 0.0 0.00 0.00 0.00 93 1014.3
20260902100038 73 0 0.0 0.0 0.00 0.00 0.00 93 1014.3
20260902095521 73 0 0.0 0.0 0.00 0.00 0.00 93 1014.3
20260902094538 73 0 0.0 0.0 0.00 0.00 0.00 93 1014.1
20260902094019 73 0 0.0 0.0 0.00 0.00 0.00 93 1014.1
20260902093520 73 0 0.0 0.0 0.00 0.00 0.00 93 1014.1
20260902093035 73 0 0.0 0.0 0.00 0.00 0.00 93 1014.1
20260902092519 73 0 0.0 0.0 0.00 0.00 0.00 93 1014.2
20260902092019 73 0 0.0 0.0 0.00 0.00 0.00 93 1014.2
20260902091546 73 0 0.0 0.0 0.00 0.00 0.00 93 1014.2
20260902091018 73 0 0.0 0.0 0.00 0.00 0.00 93 1014.3
20260902090516 73 0 0.0 0.0 0.00 0.00 0.00 93 1014.3
20260902090050 73 0 0.0 0.0 0.00 0.00 0.00 93 1014.5
20260902085517 73 0 0.0 0.0 0.00 0.00 0.00 93 1014.5
20260902085018 73 0 0.0 0.0 0.00 0.00 0.00 93 1014.5
20260902084538 73 0 0.0 0.0 0.00 0.00 0.00 93 1014.3
20260902084020 73 0 0.0 0.0 0.00 0.00 0.00 93 1014.2
20260902083518 73 0 0.0 0.0 0.00 0.00 0.00 93 1014.1
20260902083034 73 0 0.0 0.0 0.00 0.00 0.00 93 1014.1
20260902082517 73 0 0.0 0.0 0.00 0.00 0.00 93 1014.2
20260902082019 73 0 0.0 0.0 0.00 0.00 0.00 93 1014.3
20260902081540 73 0 0.0 0.0 0.00 0.00 0.00 93 1014.3
20260902081017 73 0 0.0 0.0 0.00 0.00 0.00 93 1014.4
20260902080516 73 0 0.0 0.0 0.00 0.00 0.00 93 1014.4
20260902080033 73 0 0.0 0.0 0.00 0.00 0.00 93 1014.5
20260902075517 73 0 0.0 0.0 0.00 0.00 0.00 93 1014.5
20260902075019 73 0 0.0 0.0 0.00 0.00 0.00 93 1014.3
20260902074547 73 0 0.0 0.0 0.00 0.00 0.00 93 1014.3
20260902074019 73 0 0.0 0.0 0.00 0.00 0.00 93 1014.3
20260902073520 73 0 0.0 0.0 0.00 0.00 0.00 93 1014.5
20260902073038 74 0 0.0 0.0 0.00 0.00 0.00 93 1014.5
20260902072517 74 0 0.0 0.0 0.00 0.00 0.00 93 1014.5
20260902072020 74 0 0.0 0.0 0.00 0.00 0.00 93 1014.5
20260902071534 74 0 0.0 0.0 0.00 0.00 0.00 93 1014.4
20260902071018 74 0 0.0 0.0 0.00 0.00 0.00 93 1014.5
20260902070516 74 0 0.0 0.0 0.00 0.00 0.00 93 1014.5
20260902070039 74 0 0.0 0.0 0.00 0.00 0.00 93 1014.5
20260902065517 74 0 0.0 0.0 0.00 0.00 0.00 93 1014.5
20260902065017 74 0 0.0 0.0 0.00 0.00 0.00 93 1014.5
20260902064539 74 0 0.0 0.0 0.00 0.00 0.00 93 1014.6
20260902064019 74 0 0.0 0.0 0.00 0.00 0.00 93 1014.6
20260902063517 74 0 0.0 0.0 0.00 0.00 0.00 93 1014.8
20260902063036 74 0 0.0 0.0 0.00 0.00 0.00 93 1014.7
20260902062520 74 0 0.0 0.0 0.00 0.00 0.00 92 1014.9
20260902062019 74 0 0.0 0.0 0.00 0.00 0.00 92 1014.9
20260902061543 74 0 0.0 0.0 0.00 0.00 0.00 92 1014.8
20260902061016 74 0 0.0 0.0 0.00 0.00 0.00 92 1014.9
20260902060518 74 0 0.0 0.0 0.00 0.00 0.00 92 1015.0
20260902060046 74 0 0.0 0.0 0.00 0.00 0.00 93 1015.0
20260902055519 75 0 0.0 0.0 0.00 0.00 0.00 93 1014.9
20260902055019 75 0 0.0 0.0 0.00 0.00 0.00 92 1014.9
20260902054539 75 0 0.0 0.0 0.00 0.00 0.00 92 1015.0
20260902054021 75 0 0.0 0.0 0.00 0.00 0.00 93 1015.0
20260902053516 75 0 0.0 0.0 0.00 0.00 0.00 93 1014.9
20260902053041 75 0 0.0 0.0 0.00 0.00 0.00 92 1015.0
20260902052519 75 0 0.0 0.0 0.00 0.00 0.00 92 1015.0
20260902052023 75 0 0.0 0.0 0.00 0.00 0.00 92 1015.0
20260902051540 75 0 0.0 0.0 0.00 0.00 0.00 92 1015.3
20260902051017 75 0 0.0 0.0 0.00 0.00 0.00 93 1015.3
20260902050518 75 0 0.0 0.0 0.00 0.00 0.00 92 1015.2
20260902050033 75 0 0.0 0.0 0.00 0.00 0.00 92 1015.2
20260902045516 75 0 0.0 0.0 0.00 0.00 0.00 92 1015.1
20260902045016 75 0 0.0 0.0 0.00 0.00 0.00 92 1015.0
20260902044536 75 0 0.0 0.0 0.00 0.00 0.00 92 1014.9
20260902044017 75 0 0.0 0.0 0.00 0.00 0.00 92 1014.9
20260902043518 75 0 0.0 0.0 0.00 0.00 0.00 92 1014.9
20260902043032 75 0 0.0 0.0 0.00 0.00 0.00 92 1014.9
20260902042517 75 0 0.0 0.0 0.00 0.00 0.00 92 1015.0
20260902042019 75 0 0.0 0.0 0.00 0.00 0.00 92 1014.9
20260902041539 75 0 0.0 0.0 0.00 0.00 0.00 92 1015.0
20260902041019 75 0 0.0 0.0 0.00 0.00 0.00 92 1014.9
20260902040517 75 0 0.0 0.0 0.00 0.00 0.00 91 1014.9
20260902040034 75 0 0.0 0.0 0.00 0.00 0.00 91 1014.7
20260902035517 75 0 0.0 0.0 0.00 0.00 0.00 91 1014.7
20260902035016 75 0 0.0 0.0 0.00 0.00 0.00 91 1014.8
20260902034540 75 0 0.0 0.0 0.00 0.00 0.00 91 1014.7
20260902034017 75 0 0.0 0.0 0.00 0.00 0.00 91 1014.8
20260902033517 76 0 0.0 0.0 0.00 0.00 0.00 91 1014.8
20260902033034 76 0 0.0 0.0 0.00 0.00 0.00 91 1014.8
20260902032519 76 0 0.0 0.0 0.00 0.00 0.00 91 1014.8
20260902032021 76 0 0.0 0.0 0.00 0.00 0.00 91 1015.0
20260902031538 76 0 0.0 0.0 0.00 0.00 0.00 91 1014.8
20260902031018 76 0 0.0 0.0 0.00 0.00 0.00 91 1014.8
20260902030517 76 0 0.0 0.0 0.00 0.00 0.00 91 1014.8
20260902030035 76 0 0.0 0.0 0.00 0.00 0.00 91 1014.9
20260902025519 76 0 0.0 0.0 0.00 0.00 0.00 91 1014.9
20260902025019 76 0 0.0 0.0 0.00 0.00 0.00 90 1014.9
20260902024538 76 0 0.0 0.0 0.00 0.00 0.00 90 1014.9
20260902024021 76 0 0.0 0.0 0.00 0.00 0.00 90 1015.0
20260902023517 76 0 0.0 0.0 0.00 0.00 0.00 90 1015.0
20260902023042 77 0 0.0 0.0 0.00 0.00 0.00 90 1015.0
20260902022518 77 0 0.0 0.0 0.00 0.00 0.00 90 1015.0
20260902022020 77 0 0.0 0.0 0.00 0.00 0.00 90 1015.0
20260902021537 77 0 0.0 0.0 0.00 0.00 0.00 89 1014.9
20260902021018 77 0 0.0 0.0 0.00 0.00 0.00 89 1014.9
20260902020518 77 0 0.0 0.0 0.00 0.00 0.00 89 1014.9
20260902020036 77 0 0.0 0.0 0.00 0.00 0.00 89 1014.9
20260902015518 77 0 0.0 0.0 0.00 0.00 0.00 89 1014.8
20260902015019 77 0 0.0 0.0 0.00 0.00 0.00 89 1014.8
20260902014539 78 0 0.0 0.0 0.00 0.00 0.00 89 1014.9
20260902014019 78 0 0.0 0.0 0.00 0.00 0.00 89 1014.8
20260902013519 78 0 0.0 0.0 0.00 0.00 0.00 89 1014.9
20260902013033 78 0 0.0 0.0 0.00 0.00 0.00 89 1015.0
20260902012518 78 0 0.0 0.0 0.00 0.00 0.00 89 1014.9
20260902012019 78 0 0.0 0.0 0.00 0.00 0.00 89 1014.9
20260902011539 78 0 0.0 0.0 0.00 0.00 0.00 89 1014.7
20260902011017 78 0 0.0 0.0 0.00 0.00 0.00 89 1014.7
20260902010516 78 0 0.0 0.0 0.00 0.00 0.00 89 1014.6
20260902010036 78 0 0.0 0.0 0.00 0.00 0.00 89 1014.5
20260902005517 78 0 0.0 0.0 0.00 0.00 0.00 89 1014.3
20260902005020 78 0 0.0 0.0 0.00 0.00 0.00 89 1014.3
20260902004538 78 0 0.0 0.0 0.00 0.00 0.00 89 1014.2
20260902004019 78 0 0.0 0.0 0.00 0.00 0.00 89 1014.2
20260902003520 78 0 0.0 0.0 0.00 0.00 0.00 89 1014.2
20260902003039 79 0 0.0 0.0 0.00 0.00 0.00 89 1014.3
20260902002518 79 0 0.0 0.0 0.00 0.00 0.00 89 1014.3
20260902002017 79 0 0.0 0.0 0.00 0.00 0.00 88 1014.2
20260902001548 79 0 0.0 0.0 0.00 0.00 0.00 88 1014.2
20260902001017 79 0 0.0 0.0 0.00 0.00 0.00 88 1014.3
20260902000517 80 0 0.0 0.0 0.00 0.00 0.00 88 1014.3
20260902000041 80 0 0.0 0.0 0.00 0.00 0.00 87 1014.3
20260901235518 80 0 0.0 0.0 0.00 0.00 0.00 87 1014.4
20260901235015 81 0 0.0 0.0 0.00 0.00 0.00 86 1014.5
20260901234535 81 0 0.0 0.0 0.00 0.00 0.00 86 1014.5
20260901234019 81 0 0.0 0.0 0.00 0.00 0.00 85 1014.5
20260901233520 81 0 0.0 0.0 0.00 0.00 0.00 85 1014.6
20260901233053 81 0 0.0 0.0 0.00 0.00 0.00 84 1014.5
20260901232519 82 0 0.0 0.0 0.00 0.00 0.00 84 1014.6
20260901232019 82 0 0.0 0.0 0.00 0.00 0.00 84 1014.6